Regional Weather Roundup
Issued by NWS State College, PA

Home | Current Version | Previous Version | Text Only | Print | Product List | Glossary On
Versions: 1 2 3 4 5 6 7 8 9 10 11 12 13 14 15 16 17 18 19 20 21 22 23 24 25 26 27 28 29 30 31 32 33 34 35 36 37 38 39 40 41 42 43 44 45 46 47 48 49 50
886
ASUS41 KCTP 192203
RWRCTP

REGIONAL WEATHER ROUNDUP
NATIONAL WEATHER SERVICE STATE COLLEGE PA
600 PM EDT SAT AUG 19 2017

Note: "fair" indicates few or no clouds below 12,000 feet with no
significant weather and/or obstructions to visibility.

* = STATION THAT DOES NOT REPORT PRECIPITATION /E.G. RAIN...SNOW...ETC/
    THUNDER OR FOG.

PAZ002>004-007>009-013>016-020>023-029>032-192300-
WESTERN PENNSYLVANIA

CITY           SKY/WX    TMP DP  RH WIND       PRES   REMARKS
ERIE           CLOUDY    74  61  63 W13       29.91R
MEADVILLE      CLOUDY    74  62  66 NW13      29.94R
FRANKLIN*      CLOUDY    73  61  64 NW6       29.94R
NEW CASTLE     FAIR      73  66  78 SW5       29.93S
BEAVER COUNTY  NOT AVBL
BUTLER*        CLOUDY    65  63  93 SW6       29.96R
PITTSBURGH INT CLOUDY    68  65  90 CALM      29.93F
PITTSBURGH     LGT RAIN  65  60  84 NW6       29.94F
INDIANA*       PTSUNNY   61  61 100 CALM      29.99F
LATROBE        TSTM      63  63 100 SE7       29.99R
WASHINGTON CO* CLOUDY    64  57  77 W3        29.95S
$$

PAZ004>006-010>012-017>019-024>028-033>037-041-042-045-046-049>053-192300-
CENTRAL PENNSYLVANIA

CITY           SKY/WX    TMP DP  RH WIND       PRES   REMARKS
BRADFORD       CLOUDY    68  65  90 W3        29.93R
DUBOIS         PTSUNNY   62  58  86 SW9       29.94R
CLEARFIELD     LGT RAIN  64  61  90 SW10G22   29.95R
JOHNSTOWN      HVY RAIN  61  58  90 NW21G32   30.03R FOG
ALTOONA        MOSUNNY   77  65  66 SW7       29.93R
STATE COLLEGE  MOSUNNY   77  63  61 SW10      29.89R
WILLIAMSPORT   MOSUNNY   83  66  56 S5        29.82S
SELINSGROVE    SUNNY     83  67  58 SW7       29.85S
FT INDIANTOWN  MOSUNNY   84  66  54 W5        29.86S
CAPITAL CITY   SUNNY     86  63  45 SW7       29.85S
HARRISBURG     CLOUDY    85  66  53 W7        29.85S
YORK           MOSUNNY   84  67  56 VRB6      29.87F
$$

PAZ038>040-043-044-047-048-054-055-060>062-067>071-192300-
EASTERN PENNSYLVANIA

CITY           SKY/WX    TMP DP  RH WIND       PRES   REMARKS
SCRANTON       SUNNY     82  63  52 SW9       29.86S
MOUNT POCONO     N/A     76  61  59 W10       29.92S
ALLENTOWN      SUNNY     84  66  54 SW12      29.85F
QUAKERTOWN*    CLEAR     82  64  54 W5        29.87F
READING        SUNNY     84  66  54 SW8       29.85S
LANCASTER      SUNNY     84  65  52 W8        29.86F
COATESVILLE    PTCLDY    82  68  61 CALM      29.90S
POTTSTOWN      SUNNY     82  64  54 VRB3      29.88F
BLUE BELL      SUNNY     81  64  57 W5        29.88R
DOYLESTOWN     SUNNY     84  64  50 W7        29.85F
WILLOW GROVE   NOT AVBL
NORTH PHILA    MOSUNNY   87  65  47 W10       29.86S
PHILADELPHIA   MOSUNNY   87  63  44 W10       29.85S
$$




USA.gov is the U.S. government's official web portal to all federal, state and local government web resources and services.